Regional Weather Roundup
Issued by NWS Charleston, SC

Current Version | Previous Version | Graphics & Text | Print | Product List | Glossary On
Versions: 1 2 3 4 5 6 7 8 9 10 11 12 13 14 15 16 17 18 19 20 21 22 23 24 25 26 27 28 29 30 31 32 33 34 35 36 37 38 39 40 41 42 43 44 45 46 47 48 49 50
000
ASUS42 KCHS 190912
RWRCHS

REGIONAL WEATHER ROUNDUP
NATIONAL WEATHER SERVICE CHARLESTON SC
400 AM EST THU JAN 19 2017

NOTE: "FAIR" INDICATES FEW OR NO CLOUDS BELOW 12,000 FEET WITH NO
SIGNIFICANT WEATHER AND/OR OBSTRUCTIONS TO VISIBILITY.

NOT ALL STATIONS ARE QUALITY CONTROLLED. USE DATA WITH CAUTION...
ESPECIALLY DEWPOINT OBSERVATIONS.

SCZ027-030-031-034>040-042>050-191000-
...SOUTHEAST SOUTH CAROLINA...

CITY           SKY/WX    TMP DP  RH WIND       PRES   REMARKS
N CHARLESTON   MOCLDY    51  50  96 CALM      30.00F FOG
WATERFRONT PRK   N/A     60  59  96 CALM      30.00F
MOUNT PLEASANT LGT RAIN  54  52  94 CALM      30.01F
JOHNS ISLAND   FOG       55  55 100 CALM      30.01S VSB 1/4
PINOPOLIS        N/A     55  52  88 VRB3      29.94F
MONCKS CORNER  FAIR      52  48  87 NE5       30.02S
SUMMERVILLE    FOG      N/A N/A N/A CALM      30.02S VSB 1/2
BEAUFORT MCAS  CLEAR     61  57  87 W7        30.02F
BEAUFORT ARPT  FAIR      59  55  88 W7        30.02R
HILTON HEAD IS CLEAR     59  57  94 CALM      30.03F
WALTERBORO     SUNNY     55  55 100 NW3       30.02S
ALLENDALE      FAIR      57  54  88 N5        30.02S

...SOUTHERN MIDLANDS AND PEE DEE...

CITY           SKY/WX    TMP DP  RH WIND       PRES   REMARKS
GEORGETOWN     FAIR      45  45 100 NE3       30.03F
KINGSTREE      FAIR      45  41  87 N3        30.04S
ORANGEBURG     CLEAR     49  46  90 NE3       30.03S
BARNWELL       FAIR      54  52  94 CALM      30.03S
AIKEN          FAIR      46  45  93 CALM      30.07F
MANNING        FAIR      46  41  81 NE5       30.03F
COLUMBIA       CLEAR     45  39  79 CALM      30.04S
SUMTER         CLEAR     46  39  76 NE7       30.03S
FLORENCE       CLEAR     49  40  71 NE7       30.06F
MYRTLE BEACH   CLEAR     50  45  81 N7        30.06F
N MYRTLE BEACH CLEAR     46  46 100 N5        30.03F

$$

GAZ063-065-086>088-099>101-113>116-118-119-134>141-150-191000-
...SOUTHEAST GEORGIA...

CITY           SKY/WX    TMP DP  RH WIND       PRES   REMARKS
SAVANNAH ARPT  CLEAR     57  54  89 W7        30.04S
HUNTER AAF     CLEAR     56  56 100 W7        30.01F
FORT STEWART   FOG       57  55  94 CALM      30.02S VSB 1/2
STATESBORO     PTCLDY    55  55 100 CALM      30.04S FOG
SYLVANIA       SUNNY    N/A N/A N/A CALM      30.04F
CLAXTON        FAIR     N/A N/A N/A CALM      30.05S HAZE

...CSRA...CENTRAL AND FAR SOUTHEAST GEORGIA...

CITY           SKY/WX    TMP DP  RH WIND       PRES   REMARKS
THOMSON        CLEAR     51  51 100 CALM      30.07F
AUGUSTA-BUSH   CLEAR     49  47  93 CALM        N/A
AUGUSTA-DANIEL CLEAR     59  47  64 N6        30.04F
SWAINSBORO     FAIR      55  55 100 MISG      30.04F
VIDALIA        CLEAR     61  61 100 CALM      30.04F
EASTMAN        FOG       54  54  99 CALM      30.07F VSB 1
HAZLEHURST     FAIR      59  59 100 CALM      30.04F FOG
ALMA           PTCLDY    54  53  97 CALM      30.04F FOG
WAYCROSS       CLEAR     58  58 100 CALM      30.05S FOG
JESUP          FAIR      61  55  82 CALM      30.04S
BAXLEY         FAIR      61  61 100 W3        30.04F
BRUNSWICK      CLEAR     61  61 100 CALM      30.05F
SAINT SIMONS   CLEAR     62  59  90 W6        30.03F

$$

SCZ027-028-034-036>038-045-046-048>050-GAZ119-141-191000-
...LAKE AND SUPPLEMENTAL COASTAL OBSERVATIONS...

STATION/POSITION TIME  TEMP    WIND        PRES    WAVE   SWELL
                       AIR SEA DIR/SP/G            HT/PER HT/PER/DIR
                 (UTC) (F)     (DEG/KT/KT) (MB)    (FT/S) (FT/S/D)
WINYAH BAY       0745   57      40/  6     1017.0
LAKE MURRAY      0820   53      20/  2/  3 1017.3
ACE BASIN NERRS  0745   58     250/  1     1017.0
FORT PULASKI     0848   62 57  280/  3/  4 1017.1F
SAPELO ISLAND    0800   62     310/  3     1017.0

$$

ANZ835-935-AMZ111-154-330-350-352-354-370-450-454-472-191000-
...C-MAN AND BUOY OBSERVATIONS...

STATION/POSITION TIME  TEMP    WIND        PRES    WAVE   SWELL
                       AIR SEA DIR/SP/G            HT/PER HT/PER/DIR
                 (UTC) (F)     (DEG/KT/KT) (MB)    (FT/S) (FT/S/D)
BUOY 41004       0750   68 71   20/  2/  2 1015.6    2/ 5   2/200/ 5
BUOY 41008       0750   61 60  330/  6/  8 1017.1    1/ 8
FOLLY BEACH CMAN 0800   60     330/  3/  3 1016.9S
CAPERS NEARSHORE 0808   56 55  340/  4/  6 1016.3S
FRIPP NEARSHORE  0808   60 57  300/  6/  6 1016.3F


STATION/POSITION TIME  TEMP    WIND        PRES    WAVE   SWELL
                       AIR SEA DIR/SP/G            HT/PER HT/PER/DIR
                 (UTC) (F)     (DEG/KT/KT) (MB)    (FT/S) (FT/S/D)
5E ST. MARYS GA  0830      63                N/A     1/10
FRYING PAN BUOY  0850   63 71   40/  6/ 10 1016.8R   5/ 6   5/160/ 6
BUOY 41025       0850   52 75  360/ 14/ 19 1016.6R   5/ 8   3/ 40/ 8
CAPE LOOKOUT NC  0800   51      10/  9/ 10 1016.2F
BUOY 41002       0850   67 72  360/ 16/ 17 1014.7S   8/ 8   7/310/ 8
BUOY 41010       NOT AVBL
ST AUGUSTINE FL  0900   63 62  270/  5/  6 1018.2F


$$



USA.gov is the U.S. government's official web portal to all federal, state and local government web resources and services.